Hourly Data Report for January 31, 2015

All times are specified in Local Standard Time (LST). Add 1 hour to adjust for Daylight Saving Time where and when it is observed.

Metadata including Station Name, Province, Latitude, Longitude, Elevation, Climate ID, WMO ID, TC ID
GRANBY
QUEBEC
Latitude: 45°22'22.000" N Longitude: 72°46'26.000" W Elevation: 86.00 m
Climate ID: 7022802 WMO ID: TC ID: MGB
Hourly Data Report for January 31, 2015
Temp Definition
°C

Dew Point Temp Definition
°C

Rel Hum Definition
%

Wind Dir Definition
10's deg
Wind Spd Definition
km/h

Visibility Definition
km

Stn Press Definition
kPa

Hmdx Definition

Wind Chill Definition

Weather Definition

00:00 -16.1 -21.9 61 33 8 100.92 -22 LegendNANA
01:00 -17.6 -23.0 63 32 8 100.94 -23 LegendNANA
02:00 -18.7 -24.3 61 31 8 101.01 -25 LegendNANA
03:00 -19.3 -25.0 60 32 9 101.04 -26 LegendNANA
04:00 -20.5 -25.9 62 31 7 101.03 -26 LegendNANA
05:00 -22.4 -27.6 63 26 4 101.05 -26 LegendNANA
06:00 -25.6 -29.3 71 23 3 101.11 -29 LegendNANA
07:00 -25.4 -29.0 72 19 4 101.17 -29 LegendNANA
08:00 -24.6 -28.0 73 23 5 101.21 -29 LegendNANA
09:00 -22.3 -25.7 74 24 9 101.22 -29 LegendNANA
10:00 -21.1 -26.1 64 25 12 101.23 -29 LegendNANA
11:00 -20.1 -25.6 61 26 13 101.18 -29 LegendNANA
12:00 -19.6 -25.6 59 24 15 101.12 -29 LegendNANA
13:00 -19.5 -26.0 56 25 17 101.08 -29 LegendNANA
14:00 -18.7 -26.6 50 24 14 101.05 -27 LegendNANA
15:00 -18.2 -25.7 52 21 9 101.02 -25 LegendNANA
16:00 -18.0 -25.5 52 22 7 101.02 -23 LegendNANA
17:00 -19.1 -25.6 57 21 5 101.02 -23 LegendNANA
18:00 -19.4 -25.7 57 22 6 101.05 -24 LegendNANA
19:00 -18.5 -25.3 55 24 11 101.06 -26 LegendNANA
20:00 -18.8 -25.0 58 22 8 101.08 -25 LegendNANA
21:00 -18.5 -24.7 58 20 6 101.05 -23 LegendNANA
22:00 -17.3 -23.5 59 20 6 101.00 -22 LegendNANA
23:00 -17.1 -22.6 62 21 5 100.96 -21 LegendNANA

Notes on Data Quality.

Legend
  • E = Estimated
  • M = Missing
  • NA = Not Available
  • ‡ = Partner data that is not subject to review by the National Climate Archives